Regional Weather Roundup
Issued by NWS

Home | Current Version | Previous Version | Graphics & Text | Print | Product List | Glossary On
Versions: 1 2 3 4 5 6 7 8 9 10 11 12 13 14 15 16 17 18 19 20 21 22 23 24 25 26 27 28 29 30 31 32 33 34 35 36 37 38 39 40 41 42 43 44 45 46 47 48 49 50
000
ASUS43 KLOT 261704
RWRIL

ILLINOIS REGIONAL WEATHER ROUNDUP
NATIONAL WEATHER SERVICE CHICAGO/ROMEOVILLE IL
1200 PM CDT TUE SEP 26 2017

NOTE: "FAIR" INDICATES FEW OR NO CLOUDS BELOW 12,000 FEET WITH NO
SIGNIFICANT WEATHER AND/OR OBSTRUCTIONS TO VISIBILITY.

* THESE STATIONS ARE NOT UNDER NWS QUALITY CONTROL. THEY ALSO MAY NOT
  REPORT WEATHER SUCH AS PRECIPITATION OR FOG.

ILZ001-002-007-009-015-016-024-261800-
NORTHWEST ILLINOIS

CITY           SKY/WX    TMP DP  RH WIND       PRES   REMARKS
MOLINE         MOSUNNY   82  67  60 W10       29.95S HX  84
STERLING*      CLOUDY    87  65  47 SW10G16   29.94F HX  89
SAVANNA*       MOSUNNY   80  67  64 NW3       29.94S HX  83
$$

ILZ003-004-008-010-011-017-018-261800-
NORTH CENTRAL ILLINOIS

CITY           SKY/WX    TMP DP  RH WIND       PRES   REMARKS
ROCKFORD       PTSUNNY   85  63  47 SW7       29.95F HX  86
FREEPORT*      MOSUNNY   84  64  52 S10       29.96S HX  85
ROCHELLE*      MOSUNNY   88  64  45 SW10      29.95F HX  89
DE KALB*       SUNNY     86  66  50 SW14      29.97F HX  88
PERU*          SUNNY     87  62  42 SW15      29.97S HX  87
$$

ILZ005-006-012>014-019>023-261800-
NORTHEAST ILLINOIS

CITY           SKY/WX    TMP DP  RH WIND       PRES   REMARKS
CHICAGO-OHARE  MOSUNNY   88  62  41 SW13      29.94F HX  88
CHICAGO-MIDWAY MOSUNNY   89  62  40 SW14      29.95F HX  89
AURORA         SUNNY     87  66  49 SW9       29.96F HX  89
LANSING*       SUNNY     88  65  45 S15       29.97F HX  90
JOLIET*        SUNNY     89  64  43 SW10G18   29.97S HX  90
WAUKEGAN       MOSUNNY   87  65  47 SW10      29.93F HX  89
DUPAGE AIRPORT SUNNY     87  66  49 SW13G21   29.95F HX  89
KANKAKEE*      SUNNY     88  62  40 SW15      29.99S HX  88
WHEELING       SUNNY     89  63  41 SW12      29.95F HX  90
MORRIS*        SUNNY     89  63  41 SW10G20   29.95F HX  89
ROMEOVILLE*    SUNNY     87  63  43 SW14      29.96F HX  88
NORTHERLY ISL    N/A     87  57  35 S13         N/A  HX  86
$$

LMZ740>746-261800-
SOUTHERN LAKE MICHIGAN

STATION/POSITION SKY/WX   TEMP    WIND        PRES    VSBY  WAVE
                          AIR SEA DIR/SP/G                  HT/PER
                          (F)     (DEG/KT/KT) (MB)    (MI)  (FT/S)
SOUTHERN BUOY              72 71  180/ 10/ 10 1014.1          1
WILMETTE HARBOR            77 72  160/  8/ 10   N/A           1
HARRISON CRIB              81     170/ 11/ 13   N/A
BURNHAM HARBOR             87     180/  8/ 16   N/A
CALUMET HARBOR             86     200/  7/ 10 1013.9F
BURNS HARBOR               84     230/ 10/ 17 1015.2F
MICHIGAN CITY              82     210/ 10/ 12   N/A
MICHIGAN CITY 6N           78 73  180/  4/  4   N/A           0
ST. JOSEPH                 75 72  250/  4/  6 1014.8F         1
$$

ILZ025>027-034>036-040-047-049-050-058-095>099-261800-
WEST-CENTRAL ILLINOIS

CITY           SKY/WX    TMP DP  RH WIND       PRES   REMARKS
QUINCY         SUNNY     82  65  56 W7        29.98F HX  84
GALESBURG*     MOSUNNY   83  65  53 SW10      29.97F HX  85
MACOMB*        CLOUDY    83  64  51 W9        30.00S HX  85
JACKSONVILLE*  SUNNY     88  63  43 SW10G16   29.98F HX  88
PITTSFIELD*    MOSUNNY   87  66  50 W9G16     30.00S HX  89
$$

ILZ028>032-037-038-041>044-048-051>054-059>061-261800-
CENTRAL ILLINOIS

CITY           SKY/WX    TMP DP  RH WIND       PRES   REMARKS
PONTIAC        MOSUNNY   89  62  41 SW15      29.98F HX  89
BLOOMINGTON    SUNNY     86  64  47 SW14G20   30.00F HX  87
DECATUR        SUNNY     88  60  38 SW13G21   30.00F HX  87
PEORIA         SUNNY     86  64  47 SW15      29.97F HX  87
LACON*         MOSUNNY   87  64  47 S10       29.95F HX  88
LINCOLN*       SUNNY     89  64  43 S8G16     29.98F HX  90
SPRINGFIELD    SUNNY     90  63  40 SW12G18   29.98F HX  91
TAYLORVILLE    MOSUNNY   89  61  38 SW10      30.00S HX  89
$$

ILZ033-039-045-046-055>057-062-063-261800-
EAST-CENTRAL ILLINOIS

CITY           SKY/WX    TMP DP  RH WIND       PRES   REMARKS
CHAMPAIGN      PTSUNNY   90  58  33 SW15      30.00F HX  89
RANTOUL*       SUNNY     88  64  45 W7        30.00F HX  89
MATTOON        MOSUNNY   87  64  46 SW9       30.01S HX  88
PARIS*         MOSUNNY   89  64  43 SW7       30.01F HX  90
$$

ILZ079-100>102-261800-
SOUTHWEST ILLINOIS

CITY           SKY/WX    TMP DP  RH WIND       PRES   REMARKS
ALTON          MOSUNNY   86  68  54 S9        30.00F HX  89
BELLEVILLE     MOSUNNY   89  63  41 SW9       29.98F HX  90
CAHOKIA*       SUNNY     88  63  42 VRB6      29.99  HX  88
SPARTA*        SUNNY     87  63  44 SW8       30.02F HX  88
$$

ILZ064>066-069>071-074>076-080>082-084>086-088>090-092>094-261800-
SOUTH-CENTRAL ILLINOIS

CITY           SKY/WX    TMP DP  RH WIND       PRES   REMARKS
CARBONDALE     SUNNY     86  67  52 SW6       30.01F HX  89
CAIRO*         SUNNY     84  70  62 CALM      30.01F HX  88
EFFINGHAM*     SUNNY     88  63  42 S8        30.02F HX  88
MARION         MOSUNNY   88  64  45 S6        30.02F HX  89
MT. VERNON       N/A     88  64  44 SW7       30.01F HX  89
CENTRALIA*     MOSUNNY   86  64  47 SW9       30.00F HX  87
SALEM*         MOSUNNY   89  62  39 CALM      30.01F HX  89
METROPOLIS*    SUNNY     88  65  46 SW5       30.02F HX  90
$$

ILZ067-068-072-073-078-083-087-091-261800-
SOUTHEAST ILLINOIS

CITY           SKY/WX    TMP DP  RH WIND       PRES   REMARKS
LAWRENCEVILLE  MOSUNNY   87  64  46 CALM      30.01F HX  88
FLORA*         MOSUNNY   91  64  41 W5        30.01F HX  92
FAIRFIELD*     MOSUNNY   89  62  40 CALM      30.00F HX  89
HARRISBURG*    SUNNY     87  65  47 W3        30.02F HX  88
ROBINSON*      PTSUNNY   87  65  47 S6        30.02F HAZE    HX  89
CARMI*         SUNNY     89  65  43 SW7       30.00F HX  91
$$

ABBREVIATIONS USED IN REMARKS
   TC - TEMPERATURE IN CELSIUS
  WCI - WIND CHILL INDEX
   HX - HEAT INDEX
  VSB - VISIBILITY
$$




USA.gov is the U.S. government's official web portal to all federal, state and local government web resources and services.